{"data":{"norad_id":54115,"epoch":"2026-09-20T01:26:56.401728Z","epoch_age_seconds":63679,"freshness":"FRESH","line1":"1 54115U 22138C   26263.06037502 -.00000016  00000+0 -72524-4 0  9996","line2":"2 54115  87.9102 286.0659 0002009  73.2443 286.8910 13.19725629189338","mean_motion":13.19725629,"eccentricity":0.0002009,"inclination_deg":87.9102,"raan_deg":286.0659,"arg_perigee_deg":73.2443,"mean_anomaly_deg":286.891,"bstar":-7.2524e-5,"rev_number":18933,"period_min":109.11358909436,"perigee_km":1184.248560076,"apogee_km":1187.2877371647,"semimajor_km":7563.9051486203,"source":"CELESTRAK","updated_at":"2026-09-20T09:00:44.715284Z"}}